STARLINK-35425

Last updated on Mon Oct 20 2025 00:02:07 GMT+0000 (Coordinated Universal Time)

1 65874U 25223W 25292.25002315 -.01900483 00000+0 -21713-1 0 9993 2 65874 53.1594 234.9412 0001319 91.8264 34.1898 15.64684375 3733
UTC large
Height (km)
Speed (km/s)
/
Latitude / Longitude
Inclination (degrees)
Orbital Period (minutes)
Azimuth
Elevation
Range (km)
Doppler Factor

Next 0 passes for location: London (51.5072 / 0.1276)

Sorry there are no passes over London.